{"data":{"norad_id":68542,"intl_designator":"2026-070A","name":"STARLINK-37326","alt_names":[],"object_type":"PAYLOAD","status":"ACTIVE","operator":null,"country":"US","launch_date":"2026-04-02","launch_site_code":"AFETR","launch_vehicle":null,"mission":null,"orbit_class":"UNKNOWN","rcs_meters":null,"size_class":null,"mass_kg":null,"dimensions":null,"purposes":["comms"],"wikipedia_slug":null,"has_3d_model":false,"image_url":null,"decayed_at":null,"tle_current":{"epoch":"2026-09-20T02:39:39.325248Z","epoch_age_seconds":81292,"freshness":"FRESH","line1":"1 68542U 26070A   26263.11087182  .00003498  00000+0  11472-3 0  9998","line2":"2 68542  53.1580 175.8230 0000650  15.9658 344.1365 15.34368660 26376","mean_motion":15.3436866,"eccentricity":6.5e-5,"inclination_deg":53.158,"raan_deg":175.823,"arg_perigee_deg":15.9658,"mean_anomaly_deg":344.1365,"bstar":0.00011472,"rev_number":2637,"period_min":93.849674953606,"perigee_km":462.3517302068,"apogee_km":463.24105154761,"semimajor_km":6840.9333908772,"source":"CELESTRAK","updated_at":"2026-09-20T09:00:43.909562Z"}}}